Weather History for LFJL - February, 2013

Change the Weather History Date:

Thursday, February 21, 2013

  Actual Average (LFSN) Record (LFSN)
Temperature  
Mean Temperature 28 °F -  
Max Temperature 32 °F 45 °F 53 °F (2007)
Min Temperature 24 °F 34 °F 19 °F (2012)
Degree Days  
Heating Degree Days 37    
Moisture  
Dew Point 19 °F    
Average Humidity 69    
Maximum Humidity 80    
Minimum Humidity 55    
Precipitation  
Precipitation 0.00 in - - ()
Sea Level Pressure  
Sea Level Pressure 30.04 in    
Wind  
Wind Speed 13 mph ()    
Max Wind Speed 20 mph    
Max Gust Speed -    
Visibility 6.2 miles    
Events      
Averages and records for this station are not official NWS values.
T = Trace of Precipitation, MM = Missing Value Source: Averaged Metar Reports

Daily Weather History Graph

Daily Weather History Graph

Search for Another Location

Airport or City:

Trip Planner

Search our weather history database for the weather conditions in past years. The results will help you decide how hot, cold, wet, or windy it might be!

Date:

Astronomy

Feb. 21, 2013 Rise Set
Actual Time 7:32 AM CET 6:05 PM CET
Civil Twilight 7:00 AM CET 6:37 PM CET
Nautical Twilight 6:23 AM CET 7:14 PM CET
Astronomical Twilight 5:47 AM CET 7:51 PM CET
Moon 1:51 PM CET (2/21) 4:40 AM CET (2/21)
Length of Visible Light 11h 37m
Length of Day
10h 33m
Waxing Gibbous, 82% of the Moon is Illuminated
Feb 21
Waxing Gibbous
Feb 25
Full
Mar 4
Last Quarter
Mar 11
New
Mar 19
First Quarter

Hourly Weather History & Observations

Time (CET) Temp. Windchill Dew Point Humidity Pressure Visibility Wind Dir Wind Speed Gust Speed Precip Events Conditions
12:00 AM 30.2 °F 19.8 °F 21.2 °F 69% 30.09 in 6.2 mi ENE 13.8 mph - N/A   Overcast
12:30 AM 30.2 °F 20.2 °F 21.2 °F 69% 30.09 in 6.2 mi NE 12.7 mph - N/A   Overcast
1:00 AM 30.2 °F 19.8 °F 21.2 °F 69% 30.09 in 6.2 mi NE 13.8 mph - N/A   Unknown
1:30 AM 30.2 °F 19.3 °F 21.2 °F 69% 30.09 in 6.2 mi NE 15.0 mph - N/A   Unknown
2:00 AM 28.4 °F 18.0 °F 21.2 °F 74% 30.09 in 6.2 mi NE 12.7 mph - N/A   Unknown
2:30 AM 28.4 °F 18.5 °F 21.2 °F 74% 30.09 in 6.2 mi NE 11.5 mph - N/A   Unknown
3:00 AM 28.4 °F 17.5 °F 21.2 °F 74% 30.09 in 6.2 mi NE 13.8 mph - N/A   Unknown
3:30 AM 28.4 °F 17.5 °F 21.2 °F 74% 30.06 in 6.2 mi NE 13.8 mph - N/A   Unknown
4:00 AM 26.6 °F 16.2 °F 21.2 °F 80% 30.06 in 6.2 mi NE 11.5 mph - N/A   Unknown
4:30 AM 26.6 °F 16.2 °F 21.2 °F 80% 30.06 in 6.2 mi NE 11.5 mph - N/A   Unknown
5:00 AM 26.6 °F 16.2 °F 21.2 °F 80% 30.06 in 6.2 mi NE 11.5 mph - N/A   Unknown
5:30 AM 26.6 °F 15.2 °F 21.2 °F 80% 30.06 in 6.2 mi NE 13.8 mph - N/A   Unknown
6:00 AM 26.6 °F 15.2 °F 21.2 °F 80% 30.06 in 6.2 mi NE 13.8 mph - N/A   Unknown
6:30 AM 26.6 °F 15.7 °F 21.2 °F 80% 30.06 in 6.2 mi NE 12.7 mph - N/A   Unknown
7:00 AM 26.6 °F 15.7 °F 21.2 °F 80% 30.06 in 6.2 mi NE 12.7 mph - N/A   Unknown
7:30 AM 26.6 °F 15.7 °F 21.2 °F 80% 30.06 in 6.2 mi NE 12.7 mph - N/A   Mostly Cloudy
8:00 AM 26.6 °F 15.2 °F 21.2 °F 80% 30.06 in 6.2 mi NE 13.8 mph - N/A   Overcast
8:30 AM 26.6 °F 15.2 °F 21.2 °F 80% 30.06 in 6.2 mi NE 13.8 mph - N/A   Mostly Cloudy
9:00 AM 28.4 °F 18.0 °F 21.2 °F 74% 30.06 in 6.2 mi NE 12.7 mph - N/A   Mostly Cloudy
9:30 AM 30.2 °F 18.5 °F 21.2 °F 69% 30.06 in 6.2 mi NE 17.3 mph - N/A   Overcast
10:00 AM 30.2 °F 18.5 °F 19.4 °F 64% 30.06 in 6.2 mi ENE 17.3 mph - N/A   Mostly Cloudy
10:30 AM 30.2 °F 18.5 °F 19.4 °F 64% 30.06 in 6.2 mi ENE 17.3 mph - N/A   Mostly Cloudy
11:00 AM 30.2 °F 19.3 °F 19.4 °F 64% 30.06 in 6.2 mi ENE 15.0 mph - N/A   Overcast
11:30 AM 30.2 °F 17.8 °F 17.6 °F 60% 30.06 in 6.2 mi ENE 19.6 mph - N/A   Mostly Cloudy
12:00 PM 28.4 °F 15.8 °F 19.4 °F 69% 30.06 in 6.2 mi NE 18.4 mph - N/A   Overcast
12:30 PM 30.2 °F 18.5 °F 19.4 °F 64% 30.06 in 6.2 mi NE 17.3 mph - N/A   Overcast
1:00 PM 30.2 °F 18.5 °F 17.6 °F 60% 30.06 in 6.2 mi NE 17.3 mph - N/A   Overcast
1:30 PM 32.0 °F 20.5 °F 17.6 °F 55% 30.04 in 6.2 mi NE 18.4 mph - N/A   Mostly Cloudy
2:00 PM 30.2 °F 18.5 °F 19.4 °F 64% 30.04 in 6.2 mi ENE 17.3 mph - N/A   Mostly Cloudy
2:30 PM 30.2 °F 18.1 °F 15.8 °F 55% 30.04 in 6.2 mi NE 18.4 mph - N/A   Overcast
3:00 PM 30.2 °F 17.8 °F 17.6 °F 60% 30.01 in 6.2 mi NE 19.6 mph - N/A   Overcast
3:30 PM 30.2 °F 17.8 °F 17.6 °F 60% 30.01 in 6.2 mi NE 19.6 mph - N/A   Unknown
4:00 PM 30.2 °F 18.9 °F 15.8 °F 55% 30.01 in 6.2 mi NE 16.1 mph - N/A   Unknown
4:30 PM 30.2 °F 18.1 °F 17.6 °F 60% 30.01 in 6.2 mi NE 18.4 mph - N/A   Unknown
5:00 PM 30.2 °F 17.8 °F 15.8 °F 55% 30.01 in 6.2 mi NE 19.6 mph - N/A   Overcast
5:30 PM 28.4 °F 17.0 °F 17.6 °F 64% 30.01 in 6.2 mi NE 15.0 mph - N/A   Unknown
6:00 PM 28.4 °F 18.0 °F 17.6 °F 64% 30.01 in 6.2 mi NE 12.7 mph - N/A   Overcast
6:30 PM 28.4 °F 16.6 °F 17.6 °F 64% 30.01 in 6.2 mi ENE 16.1 mph - N/A   Unknown
7:00 PM 28.4 °F 18.0 °F 17.6 °F 64% 30.01 in 6.2 mi NE 12.7 mph - N/A   Unknown
7:30 PM 28.4 °F 18.0 °F 17.6 °F 64% 30.01 in 6.2 mi ENE 12.7 mph - N/A   Unknown
8:00 PM 28.4 °F 18.0 °F 15.8 °F 59% 30.01 in 6.2 mi NE 12.7 mph - N/A   Overcast
8:30 PM 28.4 °F 17.5 °F 15.8 °F 59% 30.01 in 6.2 mi NE 13.8 mph - N/A   Mostly Cloudy
9:00 PM 26.6 °F 15.7 °F 15.8 °F 64% 30.01 in 6.2 mi ENE 12.7 mph - N/A   Unknown
9:30 PM 24.8 °F 14.6 °F 17.6 °F 74% 29.98 in 6.2 mi NE 10.4 mph - N/A   Unknown
10:00 PM 24.8 °F 14.0 °F 17.6 °F 74% 29.98 in 6.2 mi NE 11.5 mph - N/A   Unknown
10:30 PM 24.8 °F 14.0 °F 17.6 °F 74% 29.98 in 6.2 mi NE 11.5 mph - N/A   Unknown
11:00 PM 24.8 °F 14.0 °F 17.6 °F 74% 29.98 in 6.2 mi NE 11.5 mph - N/A   Unknown
11:30 PM 24.8 °F 12.9 °F 19.4 °F 80% 29.98 in 6.2 mi NE 13.8 mph - N/A   Unknown